870  
ASUS44 KSHV 231410  
RWRSHV  
 
WEATHER ROUNDUP FOR THE FOUR STATE AREA  
NATIONAL WEATHER SERVICE SHREVEPORT LA  
900 AM CDT SAT SEP 23 2017  
 
NOTE: "FAIR" INDICATES FEW OR NO CLOUDS BELOW 12000 FEET  
WITH NO SIGNIFICANT WEATHER AND/OR S TO VISIBILITY
.  
 
!LAZ001-LAZ014-TXZ097-231500  
SHREVEPORT...MONROE...TEXARKANA RADIOS  
 
CITY SKY/WX TMP DP RH WIND PRES REMARKS
 
SHREVEPORT NOT AVBL  
MONROE SUNNY 79 72 79 E6 29.99R  
NATCHITOCHES SUNNY 78 73 84 CALM 29.96S  
TEXARKANA SUNNY 75 70 84 E5 29.99R  

 
 
!LAZ001-LAZ014-TXZ097-231500  
OTHER LOCATIONS...  
 
CITY SKY/WX TMP DP RH WIND PRES REMARKS
 
DOWNTOWN SHV SUNNY 79 72 79 CALM 29.97R  
BOSSIER CITY SUNNY 78 71 81 CALM 29.97R  
RUSTON SUNNY 74 72 93 CALM 30.01S  
LITTLE ROCK SUNNY 77 73 87 NE3 30.01R  
EL DORADO SUNNY 77 71 82 CALM 29.99R  
JACKSON SUNNY 78 70 76 SE6 30.00R  
NEW ORLEANS PTSUNNY 79 76 90 NE9 29.96R  
HOUSTON MOSUNNY 78 75 90 NE5 29.93S  
LUFKIN NOT AVBL  
TYLER NOT AVBL  
DAL FT WORTH SUNNY 79 71 76 S5 29.94R  

 
 
!TXZ136-TXZ165-231500  
TYLER...LUFKIN RADIOS  
 
CITY SKY/WX TMP DP RH WIND PRES REMARKS
 
TYLER NOT AVBL  
GILMER SUNNY 75 70 85 CALM 29.98S  
LONGVIEW SUNNY 79 73 83 CALM 29.96S  
LUFKIN NOT AVBL  

 
 
!TXZ136-TXZ165-231500  
OTHER LOCATIONS...  
 
CITY SKY/WX TMP DP RH WIND PRES REMARKS
 
NACOGDOCHES SUNNY 75 72 90 CALM 29.97R  
BEAUMONT NOT AVBL  
HOUSTON MOSUNNY 78 75 90 NE5 29.93S  
AUSTIN FOG 73 73 100 SE3 29.95R VSB 1/2  
DAL FT WORTH SUNNY 79 71 76 S5 29.94R  
TEXARKANA SUNNY 75 70 84 E5 29.99R  
SHREVEPORT NOT AVBL  
FORT POLK SUNNY 79 73 81 CALM 29.95R  
LAKE CHARLES SUNNY 79 73 83 NE6 29.94S  

 
 
 
CLICK HERE TO GO TO PREVIOUS BULLETINS.

The Nexlab LA Page
The Nexlab TX Page
The Nexlab AR Page
The Nexlab OK Page Main Text Page